Time,TemperatureF,DewpointF,PressureIn,WindDirection,WindDirectionDegrees,WindSpeedMPH,WindSpeedGustMPH,Humidity,HourlyPrecipIn,Conditions,Clouds,dailyrainin,SoftwareType,DateUTC
2013-09-28 00:01:00,46.4,41.0,30.05,East,86,0.0,0.0,80,0.00,,,0.00,weatherlink.com 1.10,2013-09-28 07:01:00,
2013-09-28 00:16:00,46.2,41.0,30.05,East,86,0.0,0.0,81,0.00,,,0.00,weatherlink.com 1.10,2013-09-28 07:16:00,
2013-09-28 00:31:00,45.9,41.0,30.05,East,86,0.0,1.0,83,0.00,,,0.00,weatherlink.com 1.10,2013-09-28 07:31:00,
2013-09-28 00:46:00,45.6,40.0,30.05,East,87,0.0,0.0,81,0.00,,,0.00,weatherlink.com 1.10,2013-09-28 07:46:00,
2013-09-28 01:01:00,45.2,40.0,30.05,East,86,0.0,0.0,83,0.00,,,0.00,weatherlink.com 1.10,2013-09-28 08:01:00,
2013-09-28 01:16:00,44.6,40.0,30.05,East,86,0.0,0.0,84,0.00,,,0.00,weatherlink.com 1.10,2013-09-28 08:16:00,
2013-09-28 01:31:00,44.6,40.0,30.05,East,86,0.0,0.0,85,0.00,,,0.00,weatherlink.com 1.10,2013-09-28 08:31:00,
2013-09-28 01:46:00,44.3,40.0,30.05,East,86,0.0,0.0,86,0.00,,,0.00,weatherlink.com 1.10,2013-09-28 08:46:00,
2013-09-28 02:02:00,44.0,40.0,30.05,East,88,0.0,0.0,85,0.00,,,0.00,weatherlink.com 1.10,2013-09-28 09:02:00,
2013-09-28 02:17:00,43.7,40.0,30.05,East,88,0.0,0.0,85,0.00,,,0.00,weatherlink.com 1.10,2013-09-28 09:17:00,
2013-09-28 02:32:00,43.3,40.0,30.05,East,88,0.0,0.0,87,0.00,,,0.00,weatherlink.com 1.10,2013-09-28 09:32:00,
2013-09-28 02:47:00,42.9,40.0,30.05,East,80,0.0,0.0,88,0.00,,,0.00,weatherlink.com 1.10,2013-09-28 09:47:00,
2013-09-28 03:02:00,43.1,40.0,30.04,East,80,0.0,0.0,88,0.00,,,0.00,weatherlink.com 1.10,2013-09-28 10:02:00,
2013-09-28 03:17:00,43.1,40.0,30.04,WSW,245,0.0,0.0,89,0.00,,,0.00,weatherlink.com 1.10,2013-09-28 10:17:00,
2013-09-28 03:32:00,42.9,39.0,30.04,WSW,245,0.0,0.0,87,0.00,,,0.00,weatherlink.com 1.10,2013-09-28 10:32:00,
2013-09-28 03:47:00,42.7,40.0,30.04,WSW,245,0.0,0.0,89,0.00,,,0.00,weatherlink.com 1.10,2013-09-28 10:47:00,
2013-09-28 04:02:00,42.4,39.0,30.04,NNW,336,0.0,1.0,89,0.00,,,0.00,weatherlink.com 1.10,2013-09-28 11:02:00,
2013-09-28 04:17:00,42.3,39.0,30.05,NNW,336,0.0,0.0,89,0.00,,,0.00,weatherlink.com 1.10,2013-09-28 11:17:00,
2013-09-28 04:32:00,41.7,39.0,30.05,NNW,336,0.0,0.0,90,0.00,,,0.00,weatherlink.com 1.10,2013-09-28 11:32:00,
2013-09-28 04:47:00,41.4,39.0,30.05,NE,35,0.0,0.0,91,0.00,,,0.00,weatherlink.com 1.10,2013-09-28 11:47:00,
2013-09-28 05:02:00,41.2,39.0,30.05,NE,35,0.0,0.0,91,0.00,,,0.00,weatherlink.com 1.10,2013-09-28 12:02:00,
2013-09-28 05:17:00,41.1,39.0,30.05,NE,35,0.0,0.0,92,0.00,,,0.00,weatherlink.com 1.10,2013-09-28 12:17:00,
2013-09-28 05:32:00,40.8,38.0,30.05,NE,35,0.0,0.0,91,0.00,,,0.00,weatherlink.com 1.10,2013-09-28 12:32:00,
2013-09-28 05:47:00,40.4,38.0,30.05,NE,35,0.0,0.0,91,0.00,,,0.00,weatherlink.com 1.10,2013-09-28 12:47:00,
2013-09-28 06:02:00,40.2,38.0,30.06,NE,35,0.0,0.0,93,0.00,,,0.00,weatherlink.com 1.10,2013-09-28 13:02:00,
2013-09-28 06:17:00,40.1,38.0,30.06,NE,35,0.0,0.0,92,0.00,,,0.00,weatherlink.com 1.10,2013-09-28 13:17:00,
2013-09-28 06:32:00,39.6,38.0,30.06,NE,35,0.0,0.0,93,0.00,,,0.00,weatherlink.com 1.10,2013-09-28 13:32:00,
2013-09-28 06:47:00,39.2,38.0,30.07,NE,35,0.0,0.0,94,0.00,,,0.00,weatherlink.com 1.10,2013-09-28 13:47:00,
2013-09-28 07:03:00,39.3,38.0,30.07,NE,35,0.0,0.0,94,0.00,,,0.00,weatherlink.com 1.10,2013-09-28 14:03:00,
2013-09-28 07:18:00,39.2,38.0,30.07,NE,35,0.0,0.0,94,0.00,,,0.00,weatherlink.com 1.10,2013-09-28 14:18:00,
2013-09-28 07:33:00,39.2,38.0,30.07,NE,35,0.0,0.0,95,0.00,,,0.00,weatherlink.com 1.10,2013-09-28 14:33:00,
2013-09-28 07:48:00,41.6,40.0,30.08,NE,35,0.0,0.0,92,0.00,,,0.00,weatherlink.com 1.10,2013-09-28 14:48:00,
2013-09-28 08:03:00,43.1,40.0,30.08,NE,41,0.0,0.0,89,0.00,,,0.00,weatherlink.com 1.10,2013-09-28 15:03:00,
2013-09-28 08:18:00,44.1,41.0,30.09,SE,139,0.0,0.0,87,0.00,,,0.00,weatherlink.com 1.10,2013-09-28 15:18:00,
2013-09-28 08:33:00,45.3,42.0,30.09,SE,139,0.0,0.0,87,0.00,,,0.00,weatherlink.com 1.10,2013-09-28 15:33:00,
2013-09-28 08:48:00,47.7,43.0,30.09,SE,139,0.0,0.0,82,0.00,,,0.00,weatherlink.com 1.10,2013-09-28 15:48:00,
2013-09-28 09:03:00,50.2,44.0,30.09,SE,139,0.0,0.0,78,0.00,,,0.00,weatherlink.com 1.10,2013-09-28 16:03:00,
2013-09-28 09:19:00,53.1,44.0,30.09,NNW,347,0.0,2.0,72,0.00,,,0.00,weatherlink.com 1.10,2013-09-28 16:19:00,
2013-09-28 09:34:00,56.0,44.0,30.09,South,191,0.0,2.0,64,0.00,,,0.00,weatherlink.com 1.10,2013-09-28 16:34:00,
2013-09-28 09:49:00,58.8,44.0,30.09,North,359,1.0,2.0,59,0.00,,,0.00,weatherlink.com 1.10,2013-09-28 16:49:00,
2013-09-28 10:04:00,61.7,43.0,30.09,NNE,13,0.0,1.0,51,0.00,,,0.00,weatherlink.com 1.10,2013-09-28 17:04:00,
2013-09-28 10:19:00,64.2,43.0,30.09,NNE,21,0.0,2.0,46,0.00,,,0.00,weatherlink.com 1.10,2013-09-28 17:19:00,
2013-09-28 10:34:00,65.5,43.0,30.09,North,351,0.0,2.0,44,0.00,,,0.00,weatherlink.com 1.10,2013-09-28 17:34:00,
2013-09-28 10:49:00,66.9,42.0,30.09,NE,40,1.0,1.0,40,0.00,,,0.00,weatherlink.com 1.10,2013-09-28 17:49:00,
2013-09-28 11:05:00,68.9,41.0,30.08,NE,53,0.0,3.0,37,0.00,,,0.00,weatherlink.com 1.10,2013-09-28 18:05:00,
2013-09-28 11:20:00,71.4,44.0,30.08,West,267,2.0,2.0,37,0.00,,,0.00,weatherlink.com 1.10,2013-09-28 18:20:00,
2013-09-28 11:35:00,73.7,43.0,30.07,ENE,58,0.0,2.0,33,0.00,,,0.00,weatherlink.com 1.10,2013-09-28 18:35:00,
2013-09-28 11:50:00,75.0,41.0,30.07,NNE,26,1.0,3.0,30,0.00,,,0.00,weatherlink.com 1.10,2013-09-28 18:50:00,
2013-09-28 12:05:00,77.8,42.0,30.06,East,97,0.0,3.0,28,0.00,,,0.00,weatherlink.com 1.10,2013-09-28 19:05:00,
2013-09-28 12:34:00,79.8,40.0,30.05,SW,221,2.0,3.0,24,0.00,,,0.00,weatherlink.com 1.10,2013-09-28 19:34:00,
2013-09-28 12:50:00,79.8,38.0,30.05,South,175,0.0,3.0,22,0.00,,,0.00,weatherlink.com 1.10,2013-09-28 19:50:00,
2013-09-28 13:05:00,80.4,38.0,30.05,West,259,1.0,3.0,22,0.00,,,0.00,weatherlink.com 1.10,2013-09-28 20:05:00,
2013-09-28 13:20:00,81.4,38.0,30.04,SSW,205,0.0,3.0,21,0.00,,,0.00,weatherlink.com 1.10,2013-09-28 20:20:00,
2013-09-28 13:35:00,81.1,38.0,30.03,East,81,0.0,3.0,21,0.00,,,0.00,weatherlink.com 1.10,2013-09-28 20:35:00,
2013-09-28 13:50:00,82.1,37.0,30.03,West,271,1.0,4.0,20,0.00,,,0.00,weatherlink.com 1.10,2013-09-28 20:50:00,
2013-09-28 14:05:00,83.2,37.0,30.02,SSE,158,0.0,3.0,19,0.00,,,0.00,weatherlink.com 1.10,2013-09-28 21:05:00,
2013-09-28 14:20:00,84.0,39.0,30.01,WNW,300,0.0,4.0,20,0.00,,,0.00,weatherlink.com 1.10,2013-09-28 21:20:00,
2013-09-28 14:35:00,83.8,39.0,30.01,SE,144,0.0,5.0,20,0.00,,,0.00,weatherlink.com 1.10,2013-09-28 21:35:00,
2013-09-28 14:51:00,84.6,35.0,30.01,SE,139,2.0,4.0,17,0.00,,,0.00,weatherlink.com 1.10,2013-09-28 21:51:00,
2013-09-28 15:06:00,84.6,34.0,30.01,SW,230,0.0,4.0,16,0.00,,,0.00,weatherlink.com 1.10,2013-09-28 22:06:00,
2013-09-28 15:21:00,84.3,33.0,30.00,SE,136,0.0,5.0,16,0.00,,,0.00,weatherlink.com 1.10,2013-09-28 22:21:00,
2013-09-28 15:36:00,85.0,34.0,30.00,SSE,168,0.0,3.0,16,0.00,,,0.00,weatherlink.com 1.10,2013-09-28 22:36:00,
2013-09-28 15:51:00,85.0,32.0,29.99,SE,140,0.0,3.0,15,0.00,,,0.00,weatherlink.com 1.10,2013-09-28 22:51:00,
2013-09-28 16:06:00,84.1,32.0,29.99,NE,56,0.0,3.0,15,0.00,,,0.00,weatherlink.com 1.10,2013-09-28 23:06:00,
2013-09-28 16:21:00,83.7,31.0,29.98,WSW,243,0.0,2.0,15,0.00,,,0.00,weatherlink.com 1.10,2013-09-28 23:21:00,
2013-09-28 16:37:00,84.5,32.0,29.98,SE,126,0.0,3.0,15,0.00,,,0.00,weatherlink.com 1.10,2013-09-28 23:37:00,
2013-09-28 16:54:00,84.0,36.0,29.98,South,176,0.0,2.0,18,0.00,,,0.00,weatherlink.com 1.10,2013-09-28 23:54:00,
2013-09-28 17:10:00,83.2,34.0,29.98,SE,131,0.0,3.0,17,0.00,,,0.00,weatherlink.com 1.10,2013-09-29 00:10:00,
2013-09-28 17:26:00,82.3,36.0,29.98,ESE,106,0.0,1.0,19,0.00,,,0.00,weatherlink.com 1.10,2013-09-29 00:26:00,
2013-09-28 17:42:00,79.4,41.0,29.98,SE,124,0.0,2.0,25,0.00,,,0.00,weatherlink.com 1.10,2013-09-29 00:42:00,
2013-09-28 17:58:00,76.7,41.0,29.98,SE,146,0.0,3.0,28,0.00,,,0.00,weatherlink.com 1.10,2013-09-29 00:58:00,
2013-09-28 18:16:00,74.4,42.0,29.98,SE,130,0.0,1.0,31,0.00,,,0.00,weatherlink.com 1.10,2013-09-29 01:16:00,
2013-09-28 18:31:00,72.9,44.0,29.98,SE,143,0.0,1.0,35,0.00,,,0.00,weatherlink.com 1.10,2013-09-29 01:31:00,
2013-09-28 18:47:00,71.5,47.0,29.99,South,182,0.0,1.0,42,0.00,,,0.00,weatherlink.com 1.10,2013-09-29 01:47:00,
2013-09-28 19:03:00,69.6,48.0,30.00,SE,142,0.0,1.0,46,0.00,,,0.00,weatherlink.com 1.10,2013-09-29 02:03:00,
2013-09-28 19:17:00,68.4,49.0,30.01,West,269,0.0,1.0,51,0.00,,,0.00,weatherlink.com 1.10,2013-09-29 02:17:00,
2013-09-28 19:32:00,67.2,51.0,30.02,East,99,0.0,1.0,56,0.00,,,0.00,weatherlink.com 1.10,2013-09-29 02:32:00,
2013-09-28 19:47:00,66.3,52.0,30.02,East,99,0.0,2.0,60,0.00,,,0.00,weatherlink.com 1.10,2013-09-29 02:47:00,
2013-09-28 20:02:00,65.5,52.0,30.04,WNW,300,0.0,1.0,62,0.00,,,0.00,weatherlink.com 1.10,2013-09-29 03:02:00,
2013-09-28 20:17:00,64.6,52.0,30.03,SSW,204,0.0,0.0,65,0.00,,,0.00,weatherlink.com 1.10,2013-09-29 03:17:00,
2013-09-28 20:32:00,63.8,53.0,30.03,West,278,0.0,2.0,68,0.00,,,0.00,weatherlink.com 1.10,2013-09-29 03:32:00,
2013-09-28 20:47:00,63.3,53.0,30.03,WSW,247,0.0,1.0,70,0.00,,,0.00,weatherlink.com 1.10,2013-09-29 03:47:00,
2013-09-28 21:02:00,62.4,53.0,30.03,WSW,247,0.0,1.0,72,0.00,,,0.00,weatherlink.com 1.10,2013-09-29 04:02:00,
2013-09-28 21:17:00,61.2,53.0,30.04,WSW,248,0.0,0.0,75,0.00,,,0.00,weatherlink.com 1.10,2013-09-29 04:17:00,
2013-09-28 21:32:00,60.3,53.0,30.04,WSW,247,0.0,0.0,77,0.00,,,0.00,weatherlink.com 1.10,2013-09-29 04:32:00,
2013-09-28 21:48:00,59.1,53.0,30.05,WSW,247,0.0,0.0,81,0.00,,,0.00,weatherlink.com 1.10,2013-09-29 04:48:00,
2013-09-28 22:03:00,58.1,53.0,30.06,WSW,248,0.0,0.0,82,0.00,,,0.00,weatherlink.com 1.10,2013-09-29 05:03:00,
2013-09-28 22:18:00,57.6,53.0,30.06,WSW,248,0.0,0.0,83,0.00,,,0.00,weatherlink.com 1.10,2013-09-29 05:18:00,
2013-09-28 22:33:00,56.4,53.0,30.07,WSW,247,0.0,1.0,87,0.00,,,0.00,weatherlink.com 1.10,2013-09-29 05:33:00,
2013-09-28 22:47:00,55.9,52.0,30.06,WSW,247,0.0,0.0,87,0.00,,,0.00,weatherlink.com 1.10,2013-09-29 05:47:00,
2013-09-28 23:03:00,55.6,52.0,30.06,East,80,0.0,0.0,88,0.00,,,0.00,weatherlink.com 1.10,2013-09-29 06:03:00,
2013-09-28 23:18:00,54.9,52.0,30.06,East,80,0.0,1.0,88,0.00,,,0.00,weatherlink.com 1.10,2013-09-29 06:18:00,
2013-09-28 23:33:00,54.1,51.0,30.06,East,80,0.0,0.0,90,0.00,,,0.00,weatherlink.com 1.10,2013-09-29 06:33:00,
2013-09-28 23:48:00,53.9,51.0,30.07,East,89,0.0,0.0,90,0.00,,,0.00,weatherlink.com 1.10,2013-09-29 06:48:00,